owner,sensor,date,latitude,longitude,vertical_datum,sea_water_practical_salinity,qcFlag 
SCCF RECON,ioos:station:SCCF:13:1,2009-05-01T00:00:00Z,26.5255,-82.0032,2.49,36.77,1111122 
SCCF RECON,ioos:station:SCCF:13:1,2009-05-01T01:00:00Z,26.5255,-82.0032,2.42,36.73,1111122 
SCCF RECON,ioos:station:SCCF:13:1,2009-05-01T02:00:00Z,26.5255,-82.0032,2.35,36.4,1111122 
SCCF RECON,ioos:station:SCCF:13:1,2009-05-01T03:00:00Z,26.5255,-82.0032,2.273,36.34,1111122 
SCCF RECON,ioos:station:SCCF:13:1,2009-05-01T04:00:00Z,26.5255,-82.0032,2.2,34.99,1111122 
SCCF RECON,ioos:station:SCCF:13:1,2009-05-01T05:00:00Z,26.5255,-82.0032,2.11,34.33,1111122 
SCCF RECON,ioos:station:SCCF:13:1,2009-05-01T06:00:00Z,26.5255,-82.0032,2.048,33.54,1111122 
SCCF RECON,ioos:station:SCCF:13:1,2009-05-01T07:00:00Z,26.5255,-82.0032,2.046,32.97,1111122 
SCCF RECON,ioos:station:SCCF:13:1,2009-05-01T08:00:00Z,26.5255,-82.0032,2.11,32.53,1111122 
SCCF RECON,ioos:station:SCCF:13:1,2009-05-01T09:00:00Z,26.5255,-82.0032,2.17,32.24,1111122 
SCCF RECON,ioos:station:SCCF:13:1,2009-05-01T10:00:00Z,26.5255,-82.0032,2.23,32.14,1111122 
SCCF RECON,ioos:station:SCCF:13:1,2009-05-01T11:00:00Z,26.5255,-82.0032,2.28,33.36,1111122 
SCCF RECON,ioos:station:SCCF:13:1,2009-05-01T12:00:00Z,26.5255,-82.0032,2.33,34.07,1111122 
SCCF RECON,ioos:station:SCCF:13:1,2009-05-01T13:00:00Z,26.5255,-82.0032,2.36,34.73,1111122 
SCCF RECON,ioos:station:SCCF:13:1,2009-05-01T14:00:00Z,26.5255,-82.0032,2.378,35.82,1111122 
SCCF RECON,ioos:station:SCCF:13:1,2009-05-01T15:00:00Z,26.5255,-82.0032,2.375,36.48,1111122 
SCCF RECON,ioos:station:SCCF:13:1,2009-05-01T16:00:00Z,26.5255,-82.0032,2.357,36.57,1111122 
SCCF RECON,ioos:station:SCCF:13:1,2009-05-01T17:00:00Z,26.5255,-82.0032,2.33,36.58,1111122 
SCCF RECON,ioos:station:SCCF:13:1,2009-05-01T18:00:00Z,26.5255,-82.0032,2.329,36.64,1111122 
SCCF RECON,ioos:station:SCCF:13:1,2009-05-01T19:00:00Z,26.5255,-82.0032,2.369,36.51,1111122 
SCCF RECON,ioos:station:SCCF:13:1,2009-05-01T20:00:00Z,26.5255,-82.0032,2.43,36.69,1111122 
SCCF RECON,ioos:station:SCCF:13:1,2009-05-01T21:00:00Z,26.5255,-82.0032,2.46,36.58,1111122 
SCCF RECON,ioos:station:SCCF:13:1,2009-05-01T22:00:00Z,26.5255,-82.0032,2.486,36.53,1111122 
SCCF RECON,ioos:station:SCCF:13:1,2009-05-01T23:00:00Z,26.5255,-82.0032,2.509,36.64,1111122 
SCCF RECON,ioos:station:SCCF:13:1,2009-05-02T00:00:00Z,26.5255,-82.0032,2.51,36.68,1111122 
SCCF RECON,ioos:station:SCCF:13:1,2009-05-02T01:00:00Z,26.5255,-82.0032,2.48,36.71,1111122 
SCCF RECON,ioos:station:SCCF:13:1,2009-05-02T02:00:00Z,26.5255,-82.0032,2.409,36.71,1111122 
SCCF RECON,ioos:station:SCCF:13:1,2009-05-02T03:00:00Z,26.5255,-82.0032,2.33,36.18,1111122 
SCCF RECON,ioos:station:SCCF:13:1,2009-05-02T04:00:00Z,26.5255,-82.0032,2.26,36.08,1111122 
SCCF RECON,ioos:station:SCCF:13:1,2009-05-02T05:00:00Z,26.5255,-82.0032,2.177,34.82,1111122 
SCCF RECON,ioos:station:SCCF:13:1,2009-05-02T06:00:00Z,26.5255,-82.0032,2.09,33.53,1111122 
SCCF RECON,ioos:station:SCCF:13:1,2009-05-02T07:00:00Z,26.5255,-82.0032,2.029,32.71,1111122 
SCCF RECON,ioos:station:SCCF:13:1,2009-05-02T08:00:00Z,26.5255,-82.0032,2.01,32.25,1111122 
SCCF RECON,ioos:station:SCCF:13:1,2009-05-02T09:00:00Z,26.5255,-82.0032,2.11,31.63,1111122 
SCCF RECON,ioos:station:SCCF:13:1,2009-05-02T10:00:00Z,26.5255,-82.0032,2.18,31.22,1111122 
SCCF RECON,ioos:station:SCCF:13:1,2009-05-02T11:00:00Z,26.5255,-82.0032,2.228,31.44,1111122 
SCCF RECON,ioos:station:SCCF:13:1,2009-05-02T12:00:00Z,26.5255,-82.0032,2.28,33.0,1111122 
SCCF RECON,ioos:station:SCCF:13:1,2009-05-02T13:00:00Z,26.5255,-82.0032,2.32,33.92,1111122 
SCCF RECON,ioos:station:SCCF:13:1,2009-05-02T14:00:00Z,26.5255,-82.0032,2.357,35.03,1111122 
SCCF RECON,ioos:station:SCCF:13:1,2009-05-02T15:00:00Z,26.5255,-82.0032,2.36,36.02,1111122 
SCCF RECON,ioos:station:SCCF:13:1,2009-05-02T16:00:00Z,26.5255,-82.0032,2.33,36.41,1111122 
SCCF RECON,ioos:station:SCCF:13:1,2009-05-02T17:00:00Z,26.5255,-82.0032,2.28,36.44,1111122 
SCCF RECON,ioos:station:SCCF:13:1,2009-05-02T18:00:00Z,26.5255,-82.0032,2.245,36.48,1111122 
SCCF RECON,ioos:station:SCCF:13:1,2009-05-02T19:00:00Z,26.5255,-82.0032,2.21,36.04,1111122 
SCCF RECON,ioos:station:SCCF:13:1,2009-05-02T20:00:00Z,26.5255,-82.0032,2.21,35.63,1111122 
SCCF RECON,ioos:station:SCCF:13:1,2009-05-02T21:00:00Z,26.5255,-82.0032,2.269,35.39,1111122 
SCCF RECON,ioos:station:SCCF:13:1,2009-05-02T22:00:00Z,26.5255,-82.0032,2.341,36.1,1111122 
SCCF RECON,ioos:station:SCCF:13:1,2009-05-02T23:00:00Z,26.5255,-82.0032,2.39,36.01,1111122 
SCCF RECON,ioos:station:SCCF:13:1,2009-05-03T00:00:00Z,26.5255,-82.0032,2.41,36.05,1111122 
SCCF RECON,ioos:station:SCCF:13:1,2009-05-03T01:00:00Z,26.5255,-82.0032,2.441,36.28,1111122 
SCCF RECON,ioos:station:SCCF:13:1,2009-05-03T02:00:00Z,26.5255,-82.0032,2.45,36.48,1111122 
SCCF RECON,ioos:station:SCCF:13:1,2009-05-03T03:00:00Z,26.5255,-82.0032,2.39,36.55,1111122 
SCCF RECON,ioos:station:SCCF:13:1,2009-05-03T04:00:00Z,26.5255,-82.0032,2.33,36.48,1111122 
SCCF RECON,ioos:station:SCCF:13:1,2009-05-03T05:00:00Z,26.5255,-82.0032,2.27,35.81,1111122 
SCCF RECON,ioos:station:SCCF:13:1,2009-05-03T06:00:00Z,26.5255,-82.0032,2.204,35.51,1111122 
SCCF RECON,ioos:station:SCCF:13:1,2009-05-03T07:00:00Z,26.5255,-82.0032,2.13,34.78,1111122 
SCCF RECON,ioos:station:SCCF:13:1,2009-05-03T08:00:00Z,26.5255,-82.0032,2.07,34.08,1111122 
SCCF RECON,ioos:station:SCCF:13:1,2009-05-03T09:00:00Z,26.5255,-82.0032,2.09,32.82,1111122 
SCCF RECON,ioos:station:SCCF:13:1,2009-05-03T10:00:00Z,26.5255,-82.0032,2.2,32.23,1111122 
SCCF RECON,ioos:station:SCCF:13:1,2009-05-03T11:00:00Z,26.5255,-82.0032,2.27,32.86,1111122 
SCCF RECON,ioos:station:SCCF:13:1,2009-05-03T12:00:00Z,26.5255,-82.0032,2.33,34.44,1111122 
SCCF RECON,ioos:station:SCCF:13:1,2009-05-03T13:00:00Z,26.5255,-82.0032,2.39,34.97,1111122 
SCCF RECON,ioos:station:SCCF:13:1,2009-05-03T14:00:00Z,26.5255,-82.0032,2.441,35.83,1111122 
SCCF RECON,ioos:station:SCCF:13:1,2009-05-03T15:00:00Z,26.5255,-82.0032,2.472,36.54,1111122 
SCCF RECON,ioos:station:SCCF:13:1,2009-05-03T16:00:00Z,26.5255,-82.0032,2.471,36.72,1111122 
SCCF RECON,ioos:station:SCCF:13:1,2009-05-03T17:00:00Z,26.5255,-82.0032,2.42,36.73,1111122 
SCCF RECON,ioos:station:SCCF:13:1,2009-05-03T18:00:00Z,26.5255,-82.0032,2.345,36.75,1111122 
SCCF RECON,ioos:station:SCCF:13:1,2009-05-03T19:00:00Z,26.5255,-82.0032,2.285,36.7,1111122 
SCCF RECON,ioos:station:SCCF:13:1,2009-05-03T20:00:00Z,26.5255,-82.0032,2.233,36.44,1111122 
SCCF RECON,ioos:station:SCCF:13:1,2009-05-03T21:00:00Z,26.5255,-82.0032,2.212,36.49,1111122 
SCCF RECON,ioos:station:SCCF:13:1,2009-05-03T22:00:00Z,26.5255,-82.0032,2.287,36.02,1111122 
SCCF RECON,ioos:station:SCCF:13:1,2009-05-03T23:00:00Z,26.5255,-82.0032,2.38,36.16,1111122 
SCCF RECON,ioos:station:SCCF:13:1,2009-05-04T00:00:00Z,26.5255,-82.0032,2.42,36.48,1111122 
SCCF RECON,ioos:station:SCCF:13:1,2009-05-04T01:00:00Z,26.5255,-82.0032,2.45,36.45,1111122 
SCCF RECON,ioos:station:SCCF:13:1,2009-05-04T02:00:00Z,26.5255,-82.0032,2.48,36.48,1111122 
SCCF RECON,ioos:station:SCCF:13:1,2009-05-04T03:00:00Z,26.5255,-82.0032,2.49,36.64,1111122 
SCCF RECON,ioos:station:SCCF:13:1,2009-05-04T04:00:00Z,26.5255,-82.0032,2.441,36.8,1111122 
SCCF RECON,ioos:station:SCCF:13:1,2009-05-04T05:00:00Z,26.5255,-82.0032,2.361,36.72,1111122 
SCCF RECON,ioos:station:SCCF:13:1,2009-05-04T06:00:00Z,26.5255,-82.0032,2.283,36.28,1111122 
SCCF RECON,ioos:station:SCCF:13:1,2009-05-04T07:00:00Z,26.5255,-82.0032,2.21,35.87,1111122 
SCCF RECON,ioos:station:SCCF:13:1,2009-05-04T08:00:00Z,26.5255,-82.0032,2.14,35.18,1111122 
SCCF RECON,ioos:station:SCCF:13:1,2009-05-04T09:00:00Z,26.5255,-82.0032,2.092,34.58,1111122 
SCCF RECON,ioos:station:SCCF:13:1,2009-05-04T10:00:00Z,26.5255,-82.0032,2.104,33.47,1111122 
SCCF RECON,ioos:station:SCCF:13:1,2009-05-04T11:00:00Z,26.5255,-82.0032,2.22,33.09,1111122 
SCCF RECON,ioos:station:SCCF:13:1,2009-05-04T12:00:00Z,26.5255,-82.0032,2.29,33.3,1111122 
SCCF RECON,ioos:station:SCCF:13:1,2009-05-04T13:00:00Z,26.5255,-82.0032,2.33,34.89,1111122 
SCCF RECON,ioos:station:SCCF:13:1,2009-05-04T14:00:00Z,26.5255,-82.0032,2.39,35.02,1111122 
SCCF RECON,ioos:station:SCCF:13:1,2009-05-04T15:00:00Z,26.5255,-82.0032,2.45,35.99,1111122 
SCCF RECON,ioos:station:SCCF:13:1,2009-05-04T16:00:00Z,26.5255,-82.0032,2.47,36.88,1111122 
SCCF RECON,ioos:station:SCCF:13:1,2009-05-04T17:00:00Z,26.5255,-82.0032,2.43,37.03,1111122 
SCCF RECON,ioos:station:SCCF:13:1,2009-05-04T18:00:00Z,26.5255,-82.0032,2.34,37.05,1111122 
SCCF RECON,ioos:station:SCCF:13:1,2009-05-04T19:00:00Z,26.5255,-82.0032,2.253,37.07,1111122 
SCCF RECON,ioos:station:SCCF:13:1,2009-05-04T20:00:00Z,26.5255,-82.0032,2.17,36.58,1111122 
SCCF RECON,ioos:station:SCCF:13:1,2009-05-04T21:00:00Z,26.5255,-82.0032,2.121,36.28,1111122 
SCCF RECON,ioos:station:SCCF:13:1,2009-05-04T22:00:00Z,26.5255,-82.0032,2.1,35.37,1111122 
SCCF RECON,ioos:station:SCCF:13:1,2009-05-04T23:00:00Z,26.5255,-82.0032,2.16,34.35,1111122 
SCCF RECON,ioos:station:SCCF:13:1,2009-05-05T00:00:00Z,26.5255,-82.0032,2.253,34.14,1111122 
SCCF RECON,ioos:station:SCCF:13:1,2009-05-05T01:00:00Z,26.5255,-82.0032,2.29,34.54,1111122 
SCCF RECON,ioos:station:SCCF:13:1,2009-05-05T02:00:00Z,26.5255,-82.0032,2.33,35.87,1111122 
SCCF RECON,ioos:station:SCCF:13:1,2009-05-05T03:00:00Z,26.5255,-82.0032,2.379,35.9,1111122 
SCCF RECON,ioos:station:SCCF:13:1,2009-05-05T04:00:00Z,26.5255,-82.0032,2.4,36.34,1111122 
SCCF RECON,ioos:station:SCCF:13:1,2009-05-05T05:00:00Z,26.5255,-82.0032,2.39,36.5,1111122 
SCCF RECON,ioos:station:SCCF:13:1,2009-05-05T06:00:00Z,26.5255,-82.0032,2.323,36.68,1111122 
SCCF RECON,ioos:station:SCCF:13:1,2009-05-05T07:00:00Z,26.5255,-82.0032,2.25,36.55,1111122 
SCCF RECON,ioos:station:SCCF:13:1,2009-05-05T08:00:00Z,26.5255,-82.0032,2.18,35.85,1111122 
SCCF RECON,ioos:station:SCCF:13:1,2009-05-05T09:00:00Z,26.5255,-82.0032,2.13,35.02,1111122 
SCCF RECON,ioos:station:SCCF:13:1,2009-05-05T10:00:00Z,26.5255,-82.0032,2.102,34.23,1111122 
SCCF RECON,ioos:station:SCCF:13:1,2009-05-05T11:00:00Z,26.5255,-82.0032,2.15,33.74,1111122 
SCCF RECON,ioos:station:SCCF:13:1,2009-05-05T12:00:00Z,26.5255,-82.0032,2.26,33.19,1111122 
SCCF RECON,ioos:station:SCCF:13:1,2009-05-05T13:00:00Z,26.5255,-82.0032,2.336,34.32,1111122 
SCCF RECON,ioos:station:SCCF:13:1,2009-05-05T14:00:00Z,26.5255,-82.0032,2.4,35.13,1111122 
SCCF RECON,ioos:station:SCCF:13:1,2009-05-05T15:00:00Z,26.5255,-82.0032,2.46,35.98,1111122 
SCCF RECON,ioos:station:SCCF:13:1,2009-05-05T16:00:00Z,26.5255,-82.0032,2.5,36.94,1111122 
SCCF RECON,ioos:station:SCCF:13:1,2009-05-05T17:00:00Z,26.5255,-82.0032,2.47,37.06,1111122 
SCCF RECON,ioos:station:SCCF:13:1,2009-05-05T18:00:00Z,26.5255,-82.0032,2.379,37.09,1111122 
SCCF RECON,ioos:station:SCCF:13:1,2009-05-05T19:00:00Z,26.5255,-82.0032,2.274,37.08,1111122 
SCCF RECON,ioos:station:SCCF:13:1,2009-05-05T20:00:00Z,26.5255,-82.0032,2.188,36.73,1111122 
SCCF RECON,ioos:station:SCCF:13:1,2009-05-05T21:00:00Z,26.5255,-82.0032,2.11,36.5,1111122 
SCCF RECON,ioos:station:SCCF:13:1,2009-05-05T22:00:00Z,26.5255,-82.0032,2.06,35.94,1111122 
SCCF RECON,ioos:station:SCCF:13:1,2009-05-05T23:00:00Z,26.5255,-82.0032,2.04,34.64,1111122 
SCCF RECON,ioos:station:SCCF:13:1,2009-05-06T00:00:00Z,26.5255,-82.0032,2.1,33.95,1111122 
SCCF RECON,ioos:station:SCCF:13:1,2009-05-06T01:00:00Z,26.5255,-82.0032,2.22,33.63,1111122 
SCCF RECON,ioos:station:SCCF:13:1,2009-05-06T02:00:00Z,26.5255,-82.0032,2.29,34.76,1111122 
SCCF RECON,ioos:station:SCCF:13:1,2009-05-06T03:00:00Z,26.5255,-82.0032,2.35,35.49,1111122 
SCCF RECON,ioos:station:SCCF:13:1,2009-05-06T04:00:00Z,26.5255,-82.0032,2.4,36.04,1111122 
SCCF RECON,ioos:station:SCCF:13:1,2009-05-06T05:00:00Z,26.5255,-82.0032,2.42,36.5,1111122 
SCCF RECON,ioos:station:SCCF:13:1,2009-05-06T06:00:00Z,26.5255,-82.0032,2.38,36.72,1111122 
SCCF RECON,ioos:station:SCCF:13:1,2009-05-06T07:00:00Z,26.5255,-82.0032,2.28,36.67,1111122 
SCCF RECON,ioos:station:SCCF:13:1,2009-05-06T08:00:00Z,26.5255,-82.0032,2.209,36.68,1111122 
SCCF RECON,ioos:station:SCCF:13:1,2009-05-06T09:00:00Z,26.5255,-82.0032,2.152,35.86,1111122 
SCCF RECON,ioos:station:SCCF:13:1,2009-05-06T10:00:00Z,26.5255,-82.0032,2.12,34.71,1111122 
SCCF RECON,ioos:station:SCCF:13:1,2009-05-06T11:00:00Z,26.5255,-82.0032,2.124,34.32,1111122 
SCCF RECON,ioos:station:SCCF:13:1,2009-05-06T12:00:00Z,26.5255,-82.0032,2.209,33.95,1111122 
SCCF RECON,ioos:station:SCCF:13:1,2009-05-06T13:00:00Z,26.5255,-82.0032,2.3,34.26,1111122 
SCCF RECON,ioos:station:SCCF:13:1,2009-05-06T14:00:00Z,26.5255,-82.0032,2.362,35.35,1111122 
SCCF RECON,ioos:station:SCCF:13:1,2009-05-06T15:00:00Z,26.5255,-82.0032,2.42,35.87,1111122 
SCCF RECON,ioos:station:SCCF:13:1,2009-05-06T16:00:00Z,26.5255,-82.0032,2.48,36.71,1111122 
SCCF RECON,ioos:station:SCCF:13:1,2009-05-06T17:00:00Z,26.5255,-82.0032,2.482,36.96,1111122 
SCCF RECON,ioos:station:SCCF:13:1,2009-05-06T18:00:00Z,26.5255,-82.0032,2.419,37.0,1111122 
SCCF RECON,ioos:station:SCCF:13:1,2009-05-06T19:00:00Z,26.5255,-82.0032,2.302,36.91,1111122 
SCCF RECON,ioos:station:SCCF:13:1,2009-05-06T20:00:00Z,26.5255,-82.0032,2.207,36.98,1111122 
SCCF RECON,ioos:station:SCCF:13:1,2009-05-06T21:00:00Z,26.5255,-82.0032,2.12,36.6,1111122 
SCCF RECON,ioos:station:SCCF:13:1,2009-05-06T22:00:00Z,26.5255,-82.0032,2.053,36.47,1111122 
SCCF RECON,ioos:station:SCCF:13:1,2009-05-06T23:00:00Z,26.5255,-82.0032,1.991,34.95,1111122 
SCCF RECON,ioos:station:SCCF:13:1,2009-05-07T00:00:00Z,26.5255,-82.0032,1.979,34.09,1111122 
SCCF RECON,ioos:station:SCCF:13:1,2009-05-07T01:00:00Z,26.5255,-82.0032,2.067,33.64,1111122 
SCCF RECON,ioos:station:SCCF:13:1,2009-05-07T02:00:00Z,26.5255,-82.0032,2.203,33.42,1111122 
SCCF RECON,ioos:station:SCCF:13:1,2009-05-07T03:00:00Z,26.5255,-82.0032,2.28,34.64,1111122 
SCCF RECON,ioos:station:SCCF:13:1,2009-05-07T04:00:00Z,26.5255,-82.0032,2.33,35.33,1111122 
SCCF RECON,ioos:station:SCCF:13:1,2009-05-07T05:00:00Z,26.5255,-82.0032,2.362,36.02,1111122 
SCCF RECON,ioos:station:SCCF:13:1,2009-05-07T06:00:00Z,26.5255,-82.0032,2.37,36.7,1111122 
SCCF RECON,ioos:station:SCCF:13:1,2009-05-07T07:00:00Z,26.5255,-82.0032,2.31,36.8,1111122 
SCCF RECON,ioos:station:SCCF:13:1,2009-05-07T08:00:00Z,26.5255,-82.0032,2.25,36.89,1111122 
SCCF RECON,ioos:station:SCCF:13:1,2009-05-07T09:00:00Z,26.5255,-82.0032,2.197,36.76,1111122 
SCCF RECON,ioos:station:SCCF:13:1,2009-05-07T10:00:00Z,26.5255,-82.0032,2.15,35.93,1111122 
SCCF RECON,ioos:station:SCCF:13:1,2009-05-07T11:00:00Z,26.5255,-82.0032,2.12,34.49,1111122 
SCCF RECON,ioos:station:SCCF:13:1,2009-05-07T12:00:00Z,26.5255,-82.0032,2.16,34.16,1111122 
SCCF RECON,ioos:station:SCCF:13:1,2009-05-07T13:00:00Z,26.5255,-82.0032,2.28,34.04,1111122 
SCCF RECON,ioos:station:SCCF:13:1,2009-05-07T14:00:00Z,26.5255,-82.0032,2.37,35.44,1111122 
SCCF RECON,ioos:station:SCCF:13:1,2009-05-07T15:00:00Z,26.5255,-82.0032,2.42,36.15,1111122 
SCCF RECON,ioos:station:SCCF:13:1,2009-05-07T16:00:00Z,26.5255,-82.0032,2.449,36.59,1111122 
SCCF RECON,ioos:station:SCCF:13:1,2009-05-07T17:00:00Z,26.5255,-82.0032,2.47,36.85,1111122 
SCCF RECON,ioos:station:SCCF:13:1,2009-05-07T18:00:00Z,26.5255,-82.0032,2.421,36.91,1111122 
SCCF RECON,ioos:station:SCCF:13:1,2009-05-07T19:00:00Z,26.5255,-82.0032,2.32,36.92,1111122 
SCCF RECON,ioos:station:SCCF:13:1,2009-05-07T20:00:00Z,26.5255,-82.0032,2.217,36.91,1111122 
SCCF RECON,ioos:station:SCCF:13:1,2009-05-07T21:00:00Z,26.5255,-82.0032,2.128,36.62,1111122 
SCCF RECON,ioos:station:SCCF:13:1,2009-05-07T22:00:00Z,26.5255,-82.0032,2.05,36.58,1111122 
SCCF RECON,ioos:station:SCCF:13:1,2009-05-07T23:00:00Z,26.5255,-82.0032,1.972,35.5,1111122 
SCCF RECON,ioos:station:SCCF:13:1,2009-05-08T00:00:00Z,26.5255,-82.0032,1.91,34.55,1111122 
SCCF RECON,ioos:station:SCCF:13:1,2009-05-08T01:00:00Z,26.5255,-82.0032,1.92,33.67,1111122 
SCCF RECON,ioos:station:SCCF:13:1,2009-05-08T02:00:00Z,26.5255,-82.0032,2.038,32.92,1111122 
SCCF RECON,ioos:station:SCCF:13:1,2009-05-08T03:00:00Z,26.5255,-82.0032,2.14,32.7,1111122 
SCCF RECON,ioos:station:SCCF:13:1,2009-05-08T04:00:00Z,26.5255,-82.0032,2.2,34.18,1111122 
SCCF RECON,ioos:station:SCCF:13:1,2009-05-08T05:00:00Z,26.5255,-82.0032,2.252,35.11,1111122 
SCCF RECON,ioos:station:SCCF:13:1,2009-05-08T06:00:00Z,26.5255,-82.0032,2.31,35.58,1111122 
SCCF RECON,ioos:station:SCCF:13:1,2009-05-08T07:00:00Z,26.5255,-82.0032,2.303,36.54,1111122 
SCCF RECON,ioos:station:SCCF:13:1,2009-05-08T08:00:00Z,26.5255,-82.0032,2.24,36.72,1111122 
SCCF RECON,ioos:station:SCCF:13:1,2009-05-08T09:00:00Z,26.5255,-82.0032,2.19,36.75,1111122 
SCCF RECON,ioos:station:SCCF:13:1,2009-05-08T10:00:00Z,26.5255,-82.0032,2.17,36.62,1111122 
SCCF RECON,ioos:station:SCCF:13:1,2009-05-08T11:00:00Z,26.5255,-82.0032,2.16,35.75,1111122 
SCCF RECON,ioos:station:SCCF:13:1,2009-05-08T12:00:00Z,26.5255,-82.0032,2.16,34.82,1111122 
SCCF RECON,ioos:station:SCCF:13:1,2009-05-08T13:00:00Z,26.5255,-82.0032,2.21,34.08,1111122 
SCCF RECON,ioos:station:SCCF:13:1,2009-05-08T14:00:00Z,26.5255,-82.0032,2.31,35.56,1111122 
SCCF RECON,ioos:station:SCCF:13:1,2009-05-08T15:00:00Z,26.5255,-82.0032,2.401,36.2,1111122 
SCCF RECON,ioos:station:SCCF:13:1,2009-05-08T16:00:00Z,26.5255,-82.0032,2.47,36.58,1111122 
SCCF RECON,ioos:station:SCCF:13:1,2009-05-08T17:00:00Z,26.5255,-82.0032,2.52,36.8,1111122 
SCCF RECON,ioos:station:SCCF:13:1,2009-05-08T18:00:00Z,26.5255,-82.0032,2.513,36.86,1111122 
SCCF RECON,ioos:station:SCCF:13:1,2009-05-08T19:00:00Z,26.5255,-82.0032,2.42,36.9,1111122 
SCCF RECON,ioos:station:SCCF:13:1,2009-05-08T20:00:00Z,26.5255,-82.0032,2.319,36.88,1111122 
SCCF RECON,ioos:station:SCCF:13:1,2009-05-08T21:00:00Z,26.5255,-82.0032,2.22,36.9,1111122 
SCCF RECON,ioos:station:SCCF:13:1,2009-05-08T22:00:00Z,26.5255,-82.0032,2.137,36.66,1111122 
SCCF RECON,ioos:station:SCCF:13:1,2009-05-08T23:00:00Z,26.5255,-82.0032,2.06,36.72,1111122 
SCCF RECON,ioos:station:SCCF:13:1,2009-05-09T00:00:00Z,26.5255,-82.0032,1.99,35.94,1111122 
SCCF RECON,ioos:station:SCCF:13:1,2009-05-09T01:00:00Z,26.5255,-82.0032,1.95,35.11,1111122 
SCCF RECON,ioos:station:SCCF:13:1,2009-05-09T02:00:00Z,26.5255,-82.0032,1.98,34.09,1111122 
SCCF RECON,ioos:station:SCCF:13:1,2009-05-09T03:00:00Z,26.5255,-82.0032,2.1,33.49,1111122 
SCCF RECON,ioos:station:SCCF:13:1,2009-05-09T04:00:00Z,26.5255,-82.0032,2.2,33.29,1111122 
SCCF RECON,ioos:station:SCCF:13:1,2009-05-09T05:00:00Z,26.5255,-82.0032,2.26,35.42,1111122 
SCCF RECON,ioos:station:SCCF:13:1,2009-05-09T06:00:00Z,26.5255,-82.0032,2.3,35.77,1111122 
SCCF RECON,ioos:station:SCCF:13:1,2009-05-09T07:00:00Z,26.5255,-82.0032,2.329,36.41,1111122 
SCCF RECON,ioos:station:SCCF:13:1,2009-05-09T08:00:00Z,26.5255,-82.0032,2.32,36.72,1111122 
SCCF RECON,ioos:station:SCCF:13:1,2009-05-09T09:00:00Z,26.5255,-82.0032,2.29,36.77,1111122 
SCCF RECON,ioos:station:SCCF:13:1,2009-05-09T10:00:00Z,26.5255,-82.0032,2.27,36.79,1111122 
SCCF RECON,ioos:station:SCCF:13:1,2009-05-09T11:00:00Z,26.5255,-82.0032,2.25,36.82,1111122 
SCCF RECON,ioos:station:SCCF:13:1,2009-05-09T12:00:00Z,26.5255,-82.0032,2.251,36.56,1111122 
SCCF RECON,ioos:station:SCCF:13:1,2009-05-09T13:00:00Z,26.5255,-82.0032,2.299,36.39,1111122 
SCCF RECON,ioos:station:SCCF:13:1,2009-05-09T14:00:00Z,26.5255,-82.0032,2.373,36.46,1111122 
SCCF RECON,ioos:station:SCCF:13:1,2009-05-09T15:00:00Z,26.5255,-82.0032,2.468,36.65,1111122 
SCCF RECON,ioos:station:SCCF:13:1,2009-05-09T16:00:00Z,26.5255,-82.0032,2.527,36.75,1111122 
SCCF RECON,ioos:station:SCCF:13:1,2009-05-09T17:00:00Z,26.5255,-82.0032,2.572,36.82,1111122 
SCCF RECON,ioos:station:SCCF:13:1,2009-05-09T18:00:00Z,26.5255,-82.0032,2.572,36.87,1111122 
SCCF RECON,ioos:station:SCCF:13:1,2009-05-09T19:00:00Z,26.5255,-82.0032,2.512,36.88,1111122 
SCCF RECON,ioos:station:SCCF:13:1,2009-05-09T20:00:00Z,26.5255,-82.0032,2.398,36.9,1111122 
SCCF RECON,ioos:station:SCCF:13:1,2009-05-09T21:00:00Z,26.5255,-82.0032,2.29,36.9,1111122 
SCCF RECON,ioos:station:SCCF:13:1,2009-05-09T22:00:00Z,26.5255,-82.0032,2.204,36.74,1111122 
SCCF RECON,ioos:station:SCCF:13:1,2009-05-09T23:00:00Z,26.5255,-82.0032,2.12,36.83,1111122 
SCCF RECON,ioos:station:SCCF:13:1,2009-05-10T00:00:00Z,26.5255,-82.0032,2.039,36.4,1111122 
SCCF RECON,ioos:station:SCCF:13:1,2009-05-10T01:00:00Z,26.5255,-82.0032,1.97,35.64,1111122 
SCCF RECON,ioos:station:SCCF:13:1,2009-05-10T02:00:00Z,26.5255,-82.0032,1.937,34.74,1111122 
SCCF RECON,ioos:station:SCCF:13:1,2009-05-10T03:00:00Z,26.5255,-82.0032,1.982,33.97,1111122 
SCCF RECON,ioos:station:SCCF:13:1,2009-05-10T04:00:00Z,26.5255,-82.0032,2.11,33.32,1111122 
SCCF RECON,ioos:station:SCCF:13:1,2009-05-10T05:00:00Z,26.5255,-82.0032,2.2,33.15,1111122 
SCCF RECON,ioos:station:SCCF:13:1,2009-05-10T06:00:00Z,26.5255,-82.0032,2.24,34.7,1111122 
SCCF RECON,ioos:station:SCCF:13:1,2009-05-10T07:00:00Z,26.5255,-82.0032,2.264,35.62,1111122 
SCCF RECON,ioos:station:SCCF:13:1,2009-05-10T08:00:00Z,26.5255,-82.0032,2.28,36.2,1111122 
SCCF RECON,ioos:station:SCCF:13:1,2009-05-10T09:00:00Z,26.5255,-82.0032,2.26,36.66,1111122 
SCCF RECON,ioos:station:SCCF:13:1,2009-05-10T10:00:00Z,26.5255,-82.0032,2.22,36.78,1111122 
SCCF RECON,ioos:station:SCCF:13:1,2009-05-10T11:00:00Z,26.5255,-82.0032,2.217,36.74,1111122 
SCCF RECON,ioos:station:SCCF:13:1,2009-05-10T12:00:00Z,26.5255,-82.0032,2.194,36.34,1111122 
SCCF RECON,ioos:station:SCCF:13:1,2009-05-10T13:00:00Z,26.5255,-82.0032,2.182,35.4,1111122 
SCCF RECON,ioos:station:SCCF:13:1,2009-05-10T14:00:00Z,26.5255,-82.0032,2.23,34.83,1111122 
SCCF RECON,ioos:station:SCCF:13:1,2009-05-10T15:00:00Z,26.5255,-82.0032,2.333,35.44,1111122 
SCCF RECON,ioos:station:SCCF:13:1,2009-05-10T16:00:00Z,26.5255,-82.0032,2.418,36.01,1111122 
SCCF RECON,ioos:station:SCCF:13:1,2009-05-10T17:00:00Z,26.5255,-82.0032,2.461,36.69,1111122 
SCCF RECON,ioos:station:SCCF:13:1,2009-05-10T18:00:00Z,26.5255,-82.0032,2.49,36.74,1111122 
SCCF RECON,ioos:station:SCCF:13:1,2009-05-10T19:00:00Z,26.5255,-82.0032,2.486,36.77,1111122 
SCCF RECON,ioos:station:SCCF:13:1,2009-05-10T20:00:00Z,26.5255,-82.0032,2.39,36.79,1111122 
SCCF RECON,ioos:station:SCCF:13:1,2009-05-10T21:00:00Z,26.5255,-82.0032,2.284,36.8,1111122 
SCCF RECON,ioos:station:SCCF:13:1,2009-05-10T22:00:00Z,26.5255,-82.0032,2.204,36.8,1111122 
SCCF RECON,ioos:station:SCCF:13:1,2009-05-10T23:00:00Z,26.5255,-82.0032,2.128,36.6,1111122 
SCCF RECON,ioos:station:SCCF:13:1,2009-05-11T00:00:00Z,26.5255,-82.0032,2.04,36.47,1111122 
SCCF RECON,ioos:station:SCCF:13:1,2009-05-11T01:00:00Z,26.5255,-82.0032,1.96,35.69,1111122 
SCCF RECON,ioos:station:SCCF:13:1,2009-05-11T02:00:00Z,26.5255,-82.0032,1.91,34.72,1111122 
SCCF RECON,ioos:station:SCCF:13:1,2009-05-11T03:00:00Z,26.5255,-82.0032,1.916,33.7,1111122 
SCCF RECON,ioos:station:SCCF:13:1,2009-05-11T04:00:00Z,26.5255,-82.0032,2.03,33.0,1111122 
SCCF RECON,ioos:station:SCCF:13:1,2009-05-11T05:00:00Z,26.5255,-82.0032,2.12,32.62,1111122 
SCCF RECON,ioos:station:SCCF:13:1,2009-05-11T06:00:00Z,26.5255,-82.0032,2.17,33.37,1111122 
SCCF RECON,ioos:station:SCCF:13:1,2009-05-11T07:00:00Z,26.5255,-82.0032,2.219,35.12,1111122 
SCCF RECON,ioos:station:SCCF:13:1,2009-05-11T08:00:00Z,26.5255,-82.0032,2.25,35.41,1111122 
SCCF RECON,ioos:station:SCCF:13:1,2009-05-11T09:00:00Z,26.5255,-82.0032,2.26,36.28,1111122 
SCCF RECON,ioos:station:SCCF:13:1,2009-05-11T10:00:00Z,26.5255,-82.0032,2.24,36.61,1111122 
SCCF RECON,ioos:station:SCCF:13:1,2009-05-11T11:00:00Z,26.5255,-82.0032,2.2,36.66,1111122 
SCCF RECON,ioos:station:SCCF:13:1,2009-05-11T12:00:00Z,26.5255,-82.0032,2.18,36.51,1111122 
SCCF RECON,ioos:station:SCCF:13:1,2009-05-11T13:00:00Z,26.5255,-82.0032,2.16,36.41,1111122 
SCCF RECON,ioos:station:SCCF:13:1,2009-05-11T14:00:00Z,26.5255,-82.0032,2.24,35.87,1111122 
SCCF RECON,ioos:station:SCCF:13:1,2009-05-11T15:00:00Z,26.5255,-82.0032,2.331,36.2,1111122 
SCCF RECON,ioos:station:SCCF:13:1,2009-05-11T16:00:00Z,26.5255,-82.0032,2.39,36.35,1111122 
SCCF RECON,ioos:station:SCCF:13:1,2009-05-11T17:00:00Z,26.5255,-82.0032,2.45,36.61,1111122 
SCCF RECON,ioos:station:SCCF:13:1,2009-05-11T18:00:00Z,26.5255,-82.0032,2.5,36.67,1111122 